Location: Beaver Brook Trail
(44.0290°N, 71.8137°W)
Time: 02:26:28
(UTC+00:00)

SR - Pass Details

Date: 18 November 2024
Orbit: 573 x 858 km, 66.7° (Epoch: 03 December)

Event Time Altitude Azimuth Distance (km) Brightness Sun altitude
Exits shadow 09:20:56 11° 357° (N) 2,171 ? -26.0°
Maximum altitude 09:24:24 20° 42° (NE) 1,721 ? -25.4°
Drops below altitude 10° 09:28:26 10° 89° (E) 2,390 ? -24.7°
Sets 09:31:34 0° 106° (ESE) 3,360 ? -24.1°
